Simultaneous Nadir Overpasses (SNOs) Predictions

Prediction of SNOs between AQUA and METOP-A Satellite Orbit:

Table of predicted SNOs for the next 14.0 days since TLE Epoch: 1/19/2018
Index Date (AQUA) Time (AQUA) Lat,Lon (AQUA) SZA (AQUA ) Date (METOP-A) Time (METOP-A) Lat,Lon (METOP-A) SZA (METOP-A ) Distance(km) Time Diff (sec)
1 01/20/2018 03:58:58 74.08, 113.93 94.32 01/20/2018 03:58:07 74.10, 113.88 94.35 2.23 51
2 01/20/2018 04:48:25 -74.18, -78.65 85.59 01/20/2018 04:48:47 -74.18, -78.59 85.59 1.73 22
3 01/22/2018 23:33:16 74.11,-179.70 93.73 01/22/2018 23:32:26 74.09,-179.75 93.71 3.24 50
4 01/23/2018 00:22:42 -74.15, -12.15 86.24 01/23/2018 00:23:06 -74.17, -12.22 86.23 2.59 24
5 01/25/2018 19:07:33 74.10,-113.23 93.04 01/25/2018 19:06:44 74.12,-113.26 93.07 2.65 49
6 01/25/2018 19:57:00 -74.18, 54.21 86.88 01/25/2018 19:57:24 -74.20, 54.27 86.87 2.76 24
7 01/28/2018 14:41:50 74.09, -46.78 92.31 01/28/2018 14:41:03 74.10, -46.89 92.34 3.81 47
8 01/28/2018 15:31:17 -74.17, 120.68 87.62 01/28/2018 15:31:43 -74.18, 120.64 87.60 1.95 26
9 01/31/2018 10:16:07 74.14, 19.54 91.60 01/31/2018 10:15:20 74.13, 19.59 91.60 1.64 47
10 01/31/2018 11:05:34 -74.21,-172.99 88.33 01/31/2018 11:06:00 -74.21,-172.88 88.34 3.35 26




NCC Satellite Simultaneous Nadir Overpasses (SNOs) Prediction Service
